CAPE
0 43 744 564 964 1060 987 944 920 804 847 755 659 540 523 355 80 32 0 1 185 0 0 12 42 55 73 44 33 6 0 0 0 0 119 203 274 417 358 373 367 306 260
0 426 638 942 835 877 928 897 885 833 706 553 549 473 226 6 6 6 2 0 69 39 3 14 50 67 37 60 36 2 0 0 0 0 0 16 238 351 426 327 353 333 381
166 167 1233 949 866 895 841 789 769 751 724 564 471 202 6 8 8 4 2 1 65 55 11 31 49 43 48 22 18 1 0 0 0 0 0 0 28 409 427 332 417 447 306
127 1062 980 812 665 882 949 643 683 638 487 288 92 6 6 2 2 1 0 1 185 92 31 34 17 15 38 0 0 0 0 0 0 0 0 0 0 131 222 438 420 430 406
861 1111 856 861 547 474 696 328 315 450 47 6 3 2 3 2 0 1 3 48 149 116 55 15 1 55 3 0 0 0 0 0 0 0 0 0 0 1 224 314 378 362 447
975 931 965 785 430 663 544 214 90 17 7 1 2 2 3 6 6 5 5 227 189 133 64 6 0 58 6 0 0 0 0 0 0 0 0 0 11 5 11 88 334 386 374
681 903 852 376 137 101 48 4 4 2 1 2 4 4 14 9 4 108 74 10 82 77 8 2 0 22 0 0 0 0 0 0 0 0 0 0 7 235 10 17 12 333 291
578 868 650 198 116 16 1 1 1 1 2 3 171 334 47 7 5 14 7 12 5 1 1 0 0 0 0 0 0 0 0 0 0 0 0 0 3 18 131 24 20 8 81
565 558 500 94 10 0 0 1 1 2 23 321 180 63 26 3 4 4 3 2 0 0 0 0 0 0 0 0 0 0 0 0 0 0 0 0 0 2 5 13 12 20 11
414 259 63 0 0 1 5 60 94 387 518 332 79 46 5 3 4 0 0 0 0 0 0 0 0 0 0 0 0 0 0 0 0 0 0 0 0 0 0 1 7 7 18
203 118 2 0 1 36 143 481 625 624 488 178 49 5 2 0 0 0 0 0 0 0 0 0 0 0 0 0 0 0 0 0 0 0 0 0 1 1 1 0 0 3 7
94 49 0 0 7 124 470 628 616 579 169 0 0 0 0 0 0 0 0 0 0 0 0 0 0 0 0 0 0 0 0 0 0 0 0 0 4 6 5 3 3 3 5
38 30 5 4 50 328 585 474 305 33 0 0 0 0 0 0 0 0 0 0 0 0 0 0 0 0 0 0 0 0 0 0 0 0 2 6 11 6 0 0 0 2 0
78 50 10 12 145 579 553 333 121 0 0 0 0 0 0 0 0 0 0 0 0 0 0 0 0 0 0 0 0 0 0 0 0 0 0 0 0 0 0 0 0 0 0
40 19 2 40 231 593 496 211 11 0 0 0 0 0 0 0 0 0 0 0 0 0 0 0 0 0 0 0 0 0 0 0 0 0 0 0 0 0 0 0 0 0 0
18 0 0 23 323 583 388 211 0 0 0 0 0 0 0 0 0 0 0 0 0 0 0 0 0 0 0 0 0 0 0 0 0 0 0 0 0 0 0 0 0 0 0
22 0 0 10 383 569 329 178 0 0 0 0 0 0 0 0 0 0 0 0 0 0 0 0 0 0 0 0 0 0 0 0 0 0 0 0 0 0 0 0 0 0 0
1 0 0 17 424 536 238 96 0 0 0 0 0 0 0 0 0 0 0 0 0 0 0 0 0 0 0 0 0 0 0 0 0 0 0 0 0 0 0 0 0 0 0
10 0 0 53 368 437 168 16 0 0 0 0 0 0 0 0 0 0 0 0 0 0 0 0 0 0 0 0 0 0 0 0 0 0 0 0 0 0 0 0 0 0 0
0 0 0 111 469 467 44 0 0 0 0 0 0 0 0 0 0 0 0 0 0 0 0 0 0 0 0 0 0 0 0 0 0 0 0 0 0 0 0 0 0 0 0
4 0 0 144 429 232 33 0 0 0 0 0 0 0 0 0 0 0 0 0 0 0 0 0 0 0 0 0 0 0 0 0 0 0 0 0 0 0 0 0 0 0 0
32 12 21 98 164 93 0 0 0 0 0 0 0 0 0 0 0 0 0 0 0 0 0 0 0 0 0 0 0 0 0 0 0 0 0 0 0 0 0 0 0 0 0
90 72 83 117 70 0 0 0 0 0 0 0 0 0 0 0 0 0 0 0 0 0 0 0 0 0 0 0 0 0 0 0 0 0 0 0 0 0 0 0 0 0 0
140 192 146 70 0 0 0 0 0 0 0 0 0 0 0 0 0 0 0 0 0 0 0 0 0 0 0 0 0 0 0 0 0 0 0 0 0 0 0 0 0 0 0
386 304 103 7 2 1 0 0 0 0 0 0 0 0 0 0 0 0 0 0 0 0 0 0 0 0 0 0 0 0 0 0 0 0 0 0 0 0 0 0 0 0 0
573 381 166 60 19 2 1 1 0 0 0 0 0 0 0 0 0 0 0 0 0 0 0 0 0 0 0 0 0 0 0 0 0 0 0 0 0 0 0 0 0 0 0
CIN
-0 -178 -14 -22 -0 -0 -0 -0 -0 -0 -0 -0 -0 -0 -0 -1 -69 -130 -0 -0 -47 -0 -0 -0 -0 -116 -89 -0 -0 -0 -0 -0 -0 -0 -27 -5 -1 -0 -0 -1 -9 -15 -18
-0 -139 -34 -2 -0 -0 -0 -0 -0 -0 -0 -0 -0 -0 -2 -6 -0 -0 -0 -0 -90 -0 -0 -0 -0 -89 -0 -109 -0 -0 -0 -0 -0 -0 -0 -79 -0 -0 -0 -0 -1 -8 -4
-270 -242 -7 -12 -2 -0 -0 -0 -0 -0 -0 -0 -0 -4 -2 -0 -0 -0 -0 -0 -86 -0 -0 -0 -15 -11 -0 -1 -0 -0 -0 -0 -0 -0 -0 -0 -58 -0 -0 -0 -0 -1 -1
-277 -40 -24 -27 -20 -1 -0 -0 -0 -0 -0 -1 -25 -0 -0 -0 -0 -0 -0 -0 -36 -102 -0 -0 -0 -0 -0 -0 -0 -0 -0 -0 -0 -0 -0 -0 -0 -8 -1 -0 -0 -0 -0
-108 -47 -35 -23 -37 -23 -1 -15 -8 -0 -84 -0 -0 -0 -0 -0 -0 -0 -0 -26 -59 -105 -0 -0 -0 -0 -2 -0 -0 -0 -0 -0 -0 -0 -0 -0 -0 -0 -0 -0 -0 -0 -0
-81 -65 -33 -29 -45 -10 -3 -50 -112 -147 -0 -0 -0 -0 -0 -0 -0 -0 -0 -26 -49 -96 -0 -0 -0 -0 -2 -0 -0 -0 -0 -0 -0 -0 -0 -0 -3 -0 -0 -18 -0 -0 -0
-113 -67 -38 -100 -171 -196 -220 -0 -0 -0 -0 -0 -0 -0 -19 -0 -1 -52 -2 -5 -1 -1 -0 -0 -0 -0 -0 -0 -0 -0 -0 -0 -0 -0 -0 -0 -4 -2 -0 -0 -4 -0 -0
-111 -48 -54 -155 -200 -350 -0 -0 -0 -0 -0 -0 -40 -15 -108 -0 -0 -22 -22 -13 -0 -0 -0 -0 -0 -0 -0 -0 -0 -0 -0 -0 -0 -0 -0 -0 -0 -0 -20 -3 -0 -0 -2
-106 -83 -71 -203 -325 -0 -0 -0 -0 -0 -153 -8 -34 -87 -139 -2 -0 -0 -0 -0 -0 -0 -0 -0 -0 -0 -0 -0 -0 -0 -0 -0 -0 -0 -0 -0 -0 -0 -0 -0 -0 -2 -2
-128 -159 -250 -0 -0 -0 -252 -125 -70 -0 -0 -1 -46 -70 -0 -0 -0 -0 -0 -0 -0 -0 -0 -0 -0 -0 -0 -0 -0 -0 -0 -0 -0 -0 -0 -0 -0 -0 -0 -0 -0 -0 -1
-165 -257 -242 -0 -47 -197 -62 -0 -0 -0 -0 -6 -59 -0 -0 -0 -0 -0 -0 -0 -0 -0 -0 -0 -0 -0 -0 -0 -0 -0 -0 -0 -0 -0 -0 -0 -0 -0 -0 -0 -0 -0 -0
-185 -281 -0 -0 -148 -134 -10 -1 -1 -0 -27 -0 -0 -0 -0 -0 -0 -0 -0 -0 -0 -0 -0 -0 -0 -0 -0 -0 -0 -0 -0 -0 -0 -0 -0 -0 -0 -0 -0 -0 -0 -0 -0
-229 -258 -341 -339 -257 -69 -9 -8 -13 -74 -0 -0 -0 -0 -0 -0 -0 -0 -0 -0 -0 -0 -0 -0 -0 -0 -0 -0 -0 -0 -0 -0 -0 -0 -1 -0 -0 -0 -0 -0 -0 -0 -0
-202 -231 -287 -256 -142 -19 -19 -45 -124 -0 -0 -0 -0 -0 -0 -0 -0 -0 -0 -0 -0 -0 -0 -0 -0 -0 -0 -0 -0 -0 -0 -0 -0 -0 -0 -0 -0 -0 -0 -0 -0 -0 -0
-174 -295 -175 -225 -97 -30 -12 -109 -99 -0 -0 -0 -0 -0 -0 -0 -0 -0 -0 -0 -0 -0 -0 -0 -0 -0 -0 -0 -0 -0 -0 -0 -0 -0 -0 -0 -0 -0 -0 -0 -0 -0 -0
-240 -0 -0 -235 -112 -66 -55 -142 -0 -0 -0 -0 -0 -0 -0 -0 -0 -0 -0 -0 -0 -0 -0 -0 -0 -0 -0 -0 -0 -0 -0 -0 -0 -0 -0 -0 -0 -0 -0 -0 -0 -0 -0
-272 -0 -0 -324 -105 -60 -103 -155 -0 -0 -0 -0 -0 -0 -0 -0 -0 -0 -0 -0 -0 -0 -0 -0 -0 -0 -0 -0 -0 -0 -0 -0 -0 -0 -0 -0 -0 -0 -0 -0 -0 -0 -0
-135 -0 -0 -284 -88 -56 -106 -156 -0 -0 -0 -0 -0 -0 -0 -0 -0 -0 -0 -0 -0 -0 -0 -0 -0 -0 -0 -0 -0 -0 -0 -0 -0 -0 -0 -0 -0 -0 -0 -0 -0 -0 -0
-297 -45 -0 -219 -103 -79 -132 -227 -0 -0 -0 -0 -0 -0 -0 -0 -0 -0 -0 -0 -0 -0 -0 -0 -0 -0 -0 -0 -0 -0 -0 -0 -0 -0 -0 -0 -0 -0 -0 -0 -0 -0 -0
-0 -0 -0 -129 -79 -104 -218 -0 -0 -0 -0 -0 -0 -0 -0 -0 -0 -0 -0 -0 -0 -0 -0 -0 -0 -0 -0 -0 -0 -0 -0 -0 -0 -0 -0 -0 -0 -0 -0 -0 -0 -0 -0
-341 -0 -0 -105 -73 -99 -225 -0 -0 -0 -0 -0 -0 -0 -0 -0 -0 -0 -0 -0 -0 -0 -0 -0 -0 -0 -0 -0 -0 -0 -0 -0 -0 -0 -0 -0 -0 -0 -0 -0 -0 -0 -0
-291 -226 -133 -60 -106 -193 -0 -0 -0 -0 -0 -0 -0 -0 -0 -0 -0 -0 -0 -0 -0 -0 -0 -0 -0 -0 -0 -0 -0 -0 -0 -0 -0 -0 -0 -0 -0 -0 -0 -0 -0 -0 -0
-211 -204 -183 -141 -175 -39 -0 -0 -0 -0 -0 -0 -0 -0 -0 -0 -0 -0 -0 -0 -0 -0 -0 -0 -0 -0 -0 -0 -0 -0 -0 -0 -0 -0 -0 -0 -0 -0 -0 -0 -0 -0 -0
-218 -139 -82 -76 -0 -0 -0 -0 -0 -0 -0 -0 -0 -0 -0 -0 -0 -0 -0 -0 -0 -0 -0 -0 -0 -0 -0 -0 -0 -0 -0 -0 -0 -0 -0 -0 -0 -0 -0 -0 -0 -0 -0
-168 -140 -173 -250 -0 -0 -0 -0 -0 -0 -0 -0 -0 -0 -0 -0 -0 -0 -0 -0 -0 -0 -0 -0 -0 -0 -0 -0 -0 -0 -0 -0 -0 -0 -0 -0 -0 -0 -0 -0 -0 -0 -0
-164 -177 -244 -286 -145 -0 -0 -0 -0 -0 -0 -0 -0 -0 -0 -0 -0 -0 -0 -0 -0 -0 -0 -0 -0 -0 -0 -0 -0 -0 -0 -0 -0 -0 -0 -0 -0 -0 -0 -0 -0 -0 -0
Wind_Speed
11 15 15 14 15 15 16 16 17 17 17 17 18 18 18 18 17 17 17 17 18 19 19 20 20 21 22 22 23 23 23 24 24 24 25 25 24 24 25 24 26 27 29
12 14 15 14 14 14 14 15 16 16 16 16 17 17 17 17 17 16 16 16 16 18 19 19 20 21 21 21 22 22 23 23 23 23 22 23 25 24 24 24 24 24 26
13 13 14 13 13 13 14 15 15 16 16 16 16 16 16 16 16 16 16 16 16 17 18 19 20 20 21 21 21 21 22 23 22 22 22 22 24 25 24 24 25 24 24
11 10 11 13 12 12 14 15 15 15 15 14 14 14 14 15 16 16 16 16 16 16 18 18 19 19 20 21 22 22 21 22 22 22 22 23 23 25 26 25 25 25 24
8 9 10 10 11 12 12 13 13 13 13 13 13 13 14 15 15 16 16 16 16 16 17 18 18 18 19 20 21 21 22 21 21 22 22 23 23 24 25 26 26 26 25
6 9 10 8 8 10 11 12 12 12 12 13 13 13 14 14 15 16 16 16 16 16 16 17 19 18 19 19 20 21 21 21 21 21 22 23 23 24 24 25 26 26 26
6 6 7 8 9 9 10 11 12 12 12 13 14 14 14 14 15 15 15 15 15 15 16 16 17 17 18 18 19 20 19 20 20 21 22 22 23 24 24 24 24 25 26
5 4 5 7 8 9 10 11 12 13 13 14 14 15 15 15 15 15 15 15 15 15 15 16 17 17 17 18 19 19 19 19 20 20 21 22 22 23 24 24 24 23 24
2 3 2 3 6 9 11 12 12 13 13 14 14 14 15 14 14 14 14 15 15 15 16 16 16 16 17 18 18 18 18 18 19 20 20 21 22 22 22 23 24 23 23
1 1 1 4 6 9 11 12 13 13 13 13 13 13 13 13 13 14 14 15 15 16 16 16 16 17 17 18 18 19 19 19 19 20 20 21 21 22 22 22 23 23 23
6 2 2 5 7 9 10 11 12 12 12 12 12 12 11 12 12 13 14 15 15 16 16 17 17 17 18 19 19 19 19 19 20 20 20 21 22 22 22 23 23 23 23
11 6 3 5 8 9 8 7 8 9 9 10 10 12 12 13 13 13 14 15 15 15 16 17 17 18 18 18 19 19 19 19 20 20 20 21 22 23 23 23 23 23 23
11 8 5 6 8 8 6 8 8 8 9 10 11 12 12 12 12 12 13 14 14 14 15 16 16 17 17 18 18 19 19 19 20 20 20 21 21 22 23 23 23 23 23
13 13 8 5 5 4 7 9 8 8 8 9 11 11 11 11 11 11 12 12 13 13 14 14 15 15 16 17 17 18 19 19 19 19 19 20 20 21 22 22 23 23 24
16 13 10 7 7 4 7 8 8 8 9 10 9 9 10 10 10 10 10 11 11 12 12 12 13 14 14 15 16 17 17 18 19 19 19 20 20 21 21 21 22 22 23
22 17 11 9 8 7 8 8 8 10 10 9 8 8 8 9 9 8 8 9 10 10 10 11 11 12 13 14 15 15 16 17 18 18 18 18 19 20 21 21 22 22 23
19 16 13 12 10 9 9 8 6 9 8 7 6 8 7 7 7 7 7 7 8 8 9 9 10 11 12 13 14 15 15 16 17 17 17 17 18 19 20 21 21 22 23
17 14 13 12 11 9 8 7 5 6 6 5 6 5 6 6 6 7 6 6 6 7 8 9 9 11 12 13 14 14 14 14 15 16 17 17 18 18 19 21 21 22 23
17 16 15 14 12 11 10 9 6 3 3 4 6 4 4 5 6 6 5 6 6 7 7 8 10 11 12 13 14 15 16 15 15 15 16 17 18 18 20 22 23 23 24
16 16 16 18 14 13 13 10 5 4 2 3 3 3 2 4 6 6 4 4 4 5 6 8 10 12 13 14 15 17 17 18 16 15 16 18 18 19 21 22 24 25 25
19 20 17 17 14 13 15 15 9 8 6 4 3 2 3 5 3 4 2 3 4 5 6 8 10 11 14 15 17 19 20 20 19 18 18 18 19 21 22 24 25 26 27
19 22 19 23 16 20 15 10 9 8 6 4 3 1 1 5 3 0 0 1 3 6 7 8 10 13 16 15 17 19 22 22 23 22 19 19 21 21 23 24 25 26 27
21 22 23 24 19 13 13 9 7 6 6 7 7 5 3 2 4 3 1 2 4 5 6 8 10 13 15 16 17 20 24 25 26 24 21 21 22 24 24 25 27 28 28
20 19 22 21 18 15 15 12 13 11 9 10 8 8 7 4 1 1 1 2 3 6 6 9 11 13 15 17 20 21 23 24 28 29 25 25 24 25 26 28 29 30 32
15 17 19 19 21 20 16 13 12 12 9 12 8 9 6 9 7 3 3 1 3 5 9 11 11 13 16 19 21 24 25 26 26 29 33 31 29 28 30 31 33 34 34
15 13 12 15 21 20 17 13 12 11 8 6 5 6 5 8 4 0 1 2 5 7 10 12 13 15 18 21 22 24 25 27 28 29 32 34 35 35 35 35 35 36 35
Wind_Direction
105 115 114 105 97 90 88 84 80 78 73 71 68 64 57 48 39 34 32 30 32 35 34 33 28 22 30 37 31 29 28 25 23 22 24 25 24 25 24 23 26 28 31
107 113 117 106 99 89 84 83 80 76 74 69 67 63 57 52 42 33 30 31 31 39 36 32 27 24 34 32 30 27 27 25 24 20 15 18 23 25 22 22 24 24 25
107 111 115 105 96 90 86 83 82 80 75 69 64 54 51 46 44 41 35 33 35 45 38 33 27 27 35 29 28 25 25 25 22 21 18 14 19 21 23 22 24 22 23
104 105 108 108 96 89 86 84 79 77 72 61 54 49 47 46 46 45 45 43 40 44 37 30 26 25 35 30 28 27 26 24 23 20 18 20 22 22 25 24 25 26 25
104 108 109 104 95 92 87 83 81 76 71 64 59 53 49 49 48 49 49 47 49 43 36 30 23 34 33 30 28 27 26 22 21 21 19 19 25 24 24 26 28 29 27
107 113 111 100 91 88 85 85 85 80 72 75 67 62 59 52 52 52 52 44 43 37 35 29 25 44 36 29 27 26 25 23 21 18 18 19 21 27 24 25 25 28 30
114 113 107 100 97 91 89 88 88 83 81 77 77 69 64 58 53 48 45 43 38 30 32 30 29 32 31 29 26 24 22 21 20 20 20 19 21 25 28 25 25 25 28
117 113 102 97 96 91 94 93 92 88 85 84 77 78 65 64 55 47 42 38 35 33 33 33 30 33 31 28 24 22 22 21 19 19 19 20 22 23 23 26 23 22 21
136 117 86 78 87 94 96 95 93 91 92 88 79 75 71 62 55 49 44 41 38 36 35 35 33 36 32 26 22 21 22 21 19 18 20 20 23 22 20 21 21 20 20
183 181 106 89 88 94 96 101 101 96 89 86 78 71 60 55 50 47 46 47 45 43 42 36 37 41 35 29 27 27 25 22 20 19 19 23 23 22 21 19 19 18 16
256 215 134 113 106 102 99 100 100 90 89 81 74 62 41 40 42 46 50 53 53 51 46 41 44 47 41 36 35 33 30 25 22 22 22 26 24 24 23 21 19 18 17
252 247 166 129 118 110 97 87 85 88 79 73 65 66 63 56 49 52 55 57 54 55 52 50 53 51 45 42 38 35 32 28 22 19 27 28 27 27 24 21 19 19 16
247 251 220 146 128 117 95 97 86 79 75 75 78 74 65 57 55 52 51 47 46 48 50 52 52 50 48 44 41 36 33 29 24 21 20 28 27 22 21 21 19 16 14
246 251 234 210 151 125 110 110 98 89 82 85 89 78 65 59 62 59 56 50 51 49 52 51 48 48 46 42 39 35 30 27 23 18 17 21 21 21 20 19 18 15 12
246 244 227 202 168 154 133 120 109 106 102 100 89 70 61 65 65 59 50 51 52 50 47 43 43 42 39 34 30 30 26 24 22 20 17 18 18 17 16 14 11 8 5
246 242 217 199 184 164 151 140 126 123 115 108 96 81 67 72 70 59 55 57 54 48 41 39 37 34 27 24 19 18 21 20 20 20 18 15 14 12 10 8 5 3 1
228 233 214 209 189 175 166 155 138 129 123 117 96 97 75 71 73 61 60 55 55 49 42 29 20 22 20 14 11 10 11 13 15 16 15 12 8 5 3 4 1 359 357
214 215 202 210 194 190 190 172 163 142 133 126 119 106 89 74 75 70 63 61 47 45 44 36 10 6 2 1 4 3 6 10 9 7 4 4 1 359 357 356 354 352 351
193 190 213 216 199 206 202 180 178 181 162 147 135 131 104 96 89 86 71 63 58 52 41 34 351 346 348 355 2 360 356 354 356 355 356 353 351 347 345 343 341 340 339
224 213 219 231 219 205 240 236 200 199 216 162 154 142 114 117 108 97 67 44 42 34 20 7 355 348 347 344 345 342 345 343 344 343 341 340 340 338 336 335 334 333 330
238 224 214 210 212 221 187 184 216 218 212 184 182 144 128 134 125 108 52 39 0 354 357 1 355 349 342 344 336 334 335 341 342 337 334 332 332 331 329 329 327 326 324
227 222 216 195 203 183 199 215 249 198 215 248 240 218 151 145 146 188 30 34 8 341 346 349 344 336 337 342 335 333 328 328 332 335 333 329 329 332 330 328 327 325 324
227 218 208 203 206 210 205 226 238 234 256 267 277 281 292 195 141 145 274 325 339 340 339 341 339 334 331 333 334 330 325 321 325 328 328 327 325 325 326 324 323 324 324
229 236 246 248 240 226 222 221 200 211 226 267 275 265 289 242 243 271 286 331 341 340 345 339 336 332 331 326 326 326 326 324 320 318 321 319 320 320 320 320 321 320 319
226 238 248 251 255 251 235 242 225 245 260 281 286 296 285 288 287 131 136 354 339 341 334 333 333 330 327 324 322 322 321 321 320 315 311 311 313 314 316 316 316 315 316
229 239 232 230 251 251 241 248 243 265 271 282 301 306 291 285 321 91 114 339 332 328 324 325 328 326 322 322 322 321 319 318 317 315 311 310 309 310 312 313 314 313 314